Location: Charlotte
(35.2270°N, 80.8430°W)
Time: 04:51:49
(UTC-04:00)

Daily predictions for brighter satellites

Satellite Brightness Start Highest point End
(mag) Time Altitude Azimuth Time Altitude Azimuth Time Altitude Azimuth
Cosmos 2058 4.4 00:12:00 33° WNW 00:12:00 33° WNW 00:15:13 10° NNW
H-2A R/B 4.1 00:12:35 16° WSW 00:13:40 17° W 00:17:07 10° NW
Cosmos 1844 Rocket 4.3 00:16:14 22° ENE 00:16:14 22° ENE 00:18:48 10° NE
Cosmos 1455 4.0 00:10:53 10° N 00:12:57 30° N 00:12:57 30° N
Cosmos 1503 Rocket 4.3 00:19:42 60° NW 00:19:42 60° NW 00:24:32 10° N
Cosmos 1943 3.4 00:15:30 10° NNW 00:20:39 63° W 00:20:39 63° W
Tsikada Rocket 4.5 00:23:22 48° E 00:23:22 48° E 00:29:05 10° NNE
CZ-2C R/B 3.7 00:28:02 53° ENE 00:28:02 53° ENE 00:33:23 10° N
Lacrosse 5 3.0 00:26:21 10° NW 00:29:38 38° WNW 00:29:38 38° WNW
H-2A R/B 4.3 00:37:37 18° WNW 00:37:37 18° WNW 00:39:38 10° NW
Cosmos 968 Rocket 4.2 00:53:51 50° NNE 00:53:51 50° NNE 00:57:43 10° NNE
CZ-2C R/B 3.0 00:51:25 10° N 00:55:49 59° NNW 00:55:49 59° NNW
Cosmos 2278 Rocket 3.9 01:03:25 23° ENE 01:03:25 23° ENE 01:06:17 10° NE
Cosmos 1844 4.4 01:07:55 46° NE 01:07:55 46° NE 01:12:00 10° NNE
Cosmos 2034 Rocket 4.5 01:11:18 10° NNW 01:17:05 51° W 01:17:05 51° W
COSMOS 2406 3.6 01:14:06 10° NNW 01:19:01 58° NNE 01:19:01 58° NNE
ALOS 2 4.4 01:23:03 28° NW 01:23:03 28° NW 01:25:17 10° NNW
CZ-4C R/B 2.7 01:22:54 53° NNW 01:22:54 53° NNW 01:28:02 10° NNE
Meteor 2-10 Rocket 4.1 01:22:50 10° N 01:27:04 57° NNW 01:27:04 57° NNW
CZ-4B R/B 4.5 01:31:59 16° NNE 01:31:59 16° NNE 01:32:49 10° N
Meteor 2-3 Rocket 4.0 01:36:55 65° NNE 01:36:55 65° NNE 01:41:52 10° N
ATLAS 3B R/B 4.3 01:41:11 23° ESE 01:41:11 23° ESE 01:46:12 10° ENE
Cosmos 1634 Rocket 4.2 01:50:35 10° NNW 01:56:06 63° WNW 01:56:06 63° WNW
Cosmos 1844 Rocket 3.8 01:57:52 34° WNW 01:57:52 34° WNW 02:02:54 10° N
Cosmos 1680 Rocket 4.3 02:00:40 10° N 02:05:27 47° ENE 02:05:27 47° ENE
Cosmos 2180 Rocket 4.4 02:09:16 10° N 02:15:37 82° E 02:15:39 82° E
Cosmos 1898 Rocket 4.3 02:22:53 44° ENE 02:22:53 44° ENE 02:27:05 10° NNE
Cosmos 1607 3.9 02:24:04 72° E 02:24:04 72° E 02:29:59 10° NNE
SeaSat 1 4.0 02:26:04 25° E 02:27:40 31° ENE 02:31:57 10° N
USA 238 DEB 4.5 02:31:18 37° ESE 02:31:45 37° ESE 02:38:02 10° NE
USA 238 4.5 02:31:24 36° ESE 02:31:52 37° ESE 02:38:08 10° NE
CZ-2D R/B 4.2 02:30:12 10° NE 02:33:28 16° E 02:34:35 15° ESE
Cosmos 1932 4.4 02:40:33 80° SW 02:40:57 86° WNW 02:47:32 10° NNE
H-2A R/B 4.1 02:40:40 10° N 02:43:42 31° NW 02:43:42 31° NW
Cosmos 2278 Rocket 3.2 02:45:15 35° WNW 02:45:28 35° WNW 02:50:37 10° N
Nadezhda 4 Rocket 4.0 02:50:39 67° WSW 02:50:59 68° W 02:57:18 10° N
Cosmos 2369 Rocket 4.2 02:54:36 15° ESE 02:56:06 16° E 02:59:26 10° ENE
IRS-P3 4.2 02:51:34 10° NNE 02:56:54 69° ESE 02:57:02 68° ESE
Cosmos 1833 Rocket 3.0 02:51:56 10° NNW 02:57:33 61° ENE 02:58:54 47° ESE
NPP 3.7 02:53:44 10° NNE 02:59:06 66° ESE 02:59:20 65° ESE
COSMOS 2487 4.3 03:01:17 10° N 03:03:25 30° NNE 03:03:25 30° NNE
GP-B 3.6 03:00:27 10° N 03:04:28 56° ENE 03:04:28 56° ENE
Cosmos 2297 3.9 03:04:57 55° W 03:05:14 56° WNW 03:10:50 10° NNE
SL-16 R/B 3.7 03:01:34 16° SE 03:06:01 38° ENE 03:11:42 10° N
Cosmos 2298 Rocket 3.9 03:07:34 75° WNW 03:07:34 75° WNW 03:12:54 10° NNE
NOSS 3-2 (A) 4.5 03:11:19 29° SE 03:12:33 31° ESE 03:17:57 10° NE
USA 267 3.9 03:08:29 10° ENE 03:14:34 40° SE 03:15:50 37° SSE
Cosmos 1733 Rocket 4.0 03:19:01 39° NW 03:19:01 39° NW 03:22:21 10° N
Cosmos 2150 Rocket 4.1 03:19:04 65° W 03:19:27 67° WNW 03:24:53 10° NNE
Exosat Rocket 4.1 03:14:18 10° NNW 03:20:05 87° ENE 03:24:04 31° SSE
BREEZE-M DEB (TANK) 4.1 03:18:10 46° WSW 03:20:28 84° NW 03:45:11 10° NE
Cosmos 2082 Rocket 2.0 03:16:47 10° NNW 03:22:24 76° WSW 03:22:59 69° SSW
ADEOS Rocket 3.4 03:14:55 10° NNE 03:22:33 79° ESE 03:25:04 44° S
ATLAS 3B R/B 3.0 03:28:26 43° WSW 03:30:55 66° WNW 03:38:09 10° NNE
Cosmos 44 4.4 03:32:00 30° WNW 03:32:19 30° NW 03:36:19 10° N
Sich 1 Rocket 3.6 03:38:43 69° W 03:38:51 70° W 03:43:26 10° N
S3M 4.4 03:35:23 10° N 03:41:28 58° E 03:45:40 20° SSE
Meteor 1-27 Rocket 4.5 03:37:37 10° NNW 03:42:59 37° W 03:43:19 36° W
ERS-1 4.5 03:39:28 10° NNE 03:44:43 87° ESE 03:46:01 52° S
Gbstr 26 Del rocket 4.3 03:45:07 23° ESE 03:45:07 23° ESE 03:47:45 10° ENE
ADEOS 3.7 03:41:17 10° NNE 03:46:30 69° ESE 03:48:14 42° S
AQUA 4.2 03:42:27 10° N 03:47:01 48° WNW 03:47:29 46° W
Okean 3 3.4 03:43:31 10° NNW 03:47:40 68° W 03:47:40 68° W
Cosmos 1417 Rocket 4.4 03:42:07 10° N 03:48:16 87° E 03:51:20 32° S
Cosmos 1937 Rocket 4.4 03:49:53 30° W 03:50:39 32° WNW 03:55:16 10° N
Timation 2 Rocket 3.8 03:46:34 10° NNW 03:52:39 73° WSW 03:56:12 27° S
Cosmos 1633 3.9 03:54:43 29° SE 03:55:43 35° E 03:59:04 10° NNE
Resurs 1-4 Rocket 2.0 03:53:01 10° N 03:58:20 76° WNW 04:00:04 44° SSW
Cosmos 1908 Rocket 4.3 03:58:20 37° W 03:58:26 37° W 04:02:35 10° N
COBE Rocket 4.3 03:55:58 10° N 04:00:33 46° WNW 04:01:30 40° WSW
BREEZE-M DEB (TANK) 3.5 03:56:48 31° SW 04:01:19 78° SE 04:05:00 10° NE
BREEZE M DEB (TANK) 3.2 04:04:02 23° E 04:04:02 23° E 04:05:09 10° ENE
BREEZE-M DEB (TANK) 2.5 04:04:04 41° NW 04:04:11 41° NNW 04:08:20 10° NE
SeaSat 1 3.4 04:05:50 29° W 04:05:50 29° W 04:09:24 10° NW
MOS 1 Rocket 3.8 03:59:59 10° NNE 04:05:18 65° E 04:08:00 28° S
Okean 2 Rocket 2.9 04:05:26 49° SSW 04:06:36 83° W 04:11:02 10° N
OAO 1 4.4 04:04:33 38° WSW 04:06:40 77° SSE 04:12:09 10° E
Cosmos 1378 Rocket 4.2 04:09:12 10° NNW 04:13:09 36° W 04:13:18 36° W
CZ-2D R/B 2.4 04:08:32 10° N 04:13:47 55° WNW 04:15:54 34° SW
Cosmos 1125 Rocket 3.5 04:11:41 37° SSW 04:13:50 79° WNW 04:19:09 10° NNE
Delta 2 Rocket 3.9 04:15:57 36° WSW 04:17:20 45° SSW 04:21:45 10° SE
ARIANE 5 R/B 2.8 04:14:15 10° N 04:19:05 51° WNW 04:20:57 33° SW
Cosmos 1553 Rocket 4.1 04:13:31 10° NNW 04:19:49 63° W 04:23:53 23° SSW
Cosmos 1782 Rocket 4.3 04:20:22 33° WSW 04:21:14 36° W 04:25:24 10° NNW
USA 238 DEB 4.5 04:18:44 23° WSW 04:22:35 40° NW 04:29:07 10° NNE
USA 238 4.5 04:18:50 23° WSW 04:22:41 41° NW 04:29:14 10° NNE
CZ-2D R/B 3.6 04:18:23 10° NNE 04:22:49 81° ESE 04:25:06 28° S
UNKNOWN OBJECT B 2.6 04:25:10 10° N 04:28:52 69° WNW 04:30:08 38° SSW
IRS-1D 4.3 04:24:28 10° N 04:29:06 36° WNW 04:31:04 26° WSW
Meteor 1-18 Rocket 4.3 04:27:25 10° NNW 04:32:51 57° W 04:36:39 20° SSW
CZ-3A R/B 3.9 04:31:03 23° SW 04:34:58 34° S 05:05:28 10° ESE
Cosmos 1943 Rocket 2.3 04:33:06 20° S 04:37:04 73° ESE 04:42:42 10° NNE
Cosmos 2369 Rocket 2.4 04:36:24 25° SW 04:39:32 56° WNW 04:45:05 10° NNE
Okean O Rocket 3.4 04:36:44 10° NE 04:40:32 28° E 04:44:20 10° SSE
Cosmos 1833 Rocket 4.4 04:37:48 10° WNW 04:40:31 15° W 04:40:31 15° W
PSLV R/B 3.1 04:41:01 35° WSW 04:42:16 86° NNW 04:45:36 10° ENE
Cosmos 1346 4.0 04:40:01 10° NNW 04:41:59 26° WNW 04:41:59 26° WNW
Cosmos 1437 4.3 04:43:38 10° NW 04:45:48 20° W 04:45:48 20° W
Cosmos 1269 Rocket 3.9 04:41:08 10° NNW 04:46:28 82° WSW 04:51:44 10° SSE
Cosmos 405 Rocket 2.8 04:43:47 10° NNW 04:47:40 55° W 04:50:19 18° SSW
COSMOS 2455 2.8 04:44:20 19° SSW 04:48:43 88° WNW 04:54:46 10° NNE
SL-16 R/B 3.4 04:46:39 20° SW 04:49:37 29° W 04:54:58 10° NW
CZ-3B DEB 3.9 04:38:29 10° NW 04:51:17 63° WSW 05:01:02 10° SSE
Cosmos 1812 4.2 04:50:17 10° NW 04:53:02 19° W 04:53:36 18° W
ADEOS II 2.7 04:48:54 10° NNE 04:54:05 56° E 04:59:13 10° S
Cosmos 1975 Rocket 4.3 04:51:05 10° NW 04:54:27 22° W 04:55:49 19° WSW
Cosmos 2151 Rocket 3.9 04:51:49 20° SSW 04:54:39 49° W 04:59:03 10° N
Cosmos 2263 4.4 04:52:13 19° SW 04:56:19 58° WNW 05:02:03 10° NNE
USA 267 3.8 04:51:18 10° NE 04:57:34 51° NW 05:03:11 13° WSW
USA 161 0.9 04:59:06 22° S 05:00:23 63° W 05:02:49 10° NNW
Cosmos 1536 2.8 04:58:11 11° S 05:02:02 85° E 05:06:02 10° N
NOSS 3-2 (C) 3.9 04:57:46 17° SW 05:02:14 51° NW 05:08:33 10° NNE
NOSS 3-2 (A) 4.3 04:58:42 15° WSW 05:03:09 39° NW 05:09:12 10° NNE
Cosmos 158 Rocket 4.2 05:04:45 10° NNW 05:09:33 43° WSW 05:14:12 10° S
Cosmos 2344 4.2 05:05:50 14° WSW 05:12:15 45° NW 05:20:15 10° NNE
ASTRO E2 3.1 05:12:02 15° WSW 05:15:08 46° S 05:18:58 10° ESE
Cosmos 1536 Rocket 4.0 05:13:00 10° NNW 05:17:15 44° W 05:21:29 10° SSW
Cosmos 2315 Rocket 4.1 05:12:52 10° NNW 05:19:01 59° W 05:25:07 10° S
Cosmos 1025 Rocket 4.0 05:16:05 10° N 05:20:22 50° E 05:24:38 10° SSE
CENTAUR R/B 2.7 05:14:34 10° SSW 05:20:23 72° ESE 05:26:59 10° NE
BREEZE-M DEB (TANK) 2.4 05:19:49 10° WNW 05:23:20 53° SW 05:25:58 10° SE
PSLV R/B 3.8 05:20:30 10° N 05:24:09 57° WNW 05:27:45 10° SSW
IRS-1C Rocket 4.3 05:22:05 10° NNE 05:27:22 78° ESE 05:32:38 10° S
Gbstr 26 Del rocket 3.9 05:28:01 10° W 05:31:23 31° NW 05:34:51 10° NNE
PSLV R/B 3.5 05:28:56 10° N 05:33:10 72° WNW 05:37:26 10° SSW
DNEPR-1 R/B 4.2 05:27:49 10° SSW 05:33:39 78° ESE 05:38:30 10° NNE
SL-08 R/B 4.5 05:27:55 10° S 05:34:00 85° W 05:40:11 10° N
Okean 1-7 Rocket 3.7 05:29:55 10° N 05:34:24 81° E 05:38:49 10° S
Tiangong 2 3.7 05:38:32 10° SSE 05:39:57 12° SE 05:41:23 10° ESE
CZ-4B R/B 3.3 05:36:29 10° N 05:42:03 77° WNW 05:47:41 10° SSW
Okean 1 Rocket 3.8 05:39:19 10° SSW 05:43:28 38° W 05:47:38 10° N
Meteor 2-4 Rocket 4.0 05:40:23 10° NNW 05:45:44 46° W 05:50:55 10° SSW
